Location: Niedergestelen
(46.3129°N, 7.7822°E)
Time: 23:05:51
(UTC+00:00)

N. Korean satellite - Pass Details

Date: 21 September 2021
Orbit: 450 x 495 km, 97.3° (Epoch: 22 October)

Event Time Altitude Azimuth Distance (km) Brightness Sun altitude
Rises 03:50:13 0° 30° (NNE) 2,512 11.0 -15.1°
Reaches altitude 10° 03:52:55 10° 53° (NE) 1,639 10.4 -14.7°
Maximum altitude 03:55:08 16° 92° (E) 1,325 9.8 -14.3°
Drops below altitude 10° 03:57:21 10° 131° (SE) 1,647 9.7 -14.0°
Sets 04:00:04 0° 154° (SSE) 2,530 10.3 -13.5°
